Location: Charentilly
(47.4702°N, 0.6096°E)
Time: 00:21:51
(UTC+02:00)

ISS - Visible Passes

Search period start: 24 August 2019 00:00
Search period end: 03 September 2019 00:00
Orbit: 410 x 421 km, 51.6° (Epoch: 24 August)

Date Brightness Start Highest point End Pass type
(mag) Time Alt. Az. Time Alt. Az. Time Alt. Az.
27 Aug -1.3 06:24:20 10° S 06:26:30 16° SE 06:28:40 10° E visible
29 Aug -2.6 06:22:10 10° SSW 06:25:15 36° SE 06:28:22 10° ENE visible
30 Aug -2.0 05:35:12 18° S 05:36:33 23° SE 05:39:16 10° E visible
31 Aug -1.3 04:48:24 14° SE 04:48:24 14° SE 04:49:51 10° E visible
31 Aug -3.7 06:21:17 13° WSW 06:24:08 78° SSE 06:27:30 10° ENE visible
01 Sep -3.3 05:34:25 38° SSW 05:35:19 51° SSE 05:38:35 10° ENE visible
02 Sep -2.0 04:47:30 27° ESE 04:47:30 27° ESE 04:49:34 10° ENE visible
02 Sep -3.4 06:20:23 14° W 06:23:08 59° NNW 06:26:27 10° ENE visible
